カタログに戻る

STARLINK-36560

運用中通信SSO
NORAD 67585·PAYLOAD·🇺🇸 United States

打ち上げ Jan 25, 2026 から Vandenberg Space Force Base

Loading…

次のパス (今後24時間)

TLE

最新Source: CelesTrak SupGP

元期: Sep 14, 2026, 22:53 UTC

1 67585C 26016AA  26257.95395833  .00007475  00000+0  23210-3 0  2573
2 67585  97.2850 316.6319 0000647  88.8106   2.3288 15.33430552    16

AllMySatでSTARLINK-36560をリアルタイム追跡

Download on the App Store